Starlink 11502

operational
NORAD ID: 62474 Int'l Des: 2024-254 Owner: SPXS Country: US Constellation: starlink
LEOCIRCULAR

Über Starlink 11502

Beschreibung wird geladen...

Live-Position

3D-Globus wird geladen...

Nächste Überflüge

Höhenverlauf

Altitude vs Time

uPlot chart will show altitude changes over time

Zweizeiliger Elementsatz

1 62474U 24254N 25301.66674769 -.00049190 00000-0 -38194-3 0 9995
2 62474 43.0000 298.7153 0001611 274.2204 244.7400 15.70850480 5900
Epoch: 28. Okt. 2025 • Age: 8 hours

Aktueller Status

Höhe 361.5 km
Geschwindigkeit 7.69 km/s
Subsatellitenpunkt -23.11°S, 108.19°E
Startdatum 31. Dez. 2024
Alter 0.8 years
Typ internet

Technische Details

Klassifizierung Payload
Masse 960.00 kg
Trockenmasse 910.00 kg
Gesamtmasse 960.00 kg
Länge 0.30 m
Durchmesser 4.10 m
Spannweite 29.00 m
Form Box + pan
Hersteller SPXS
Bus-Typ Starlink V2MD
Phasenstatus In Orbit
Besitzer/Staat SPXS/US

Große Konstellationen

Loading constellations...